Weather History for Santa Ynez, CA

Change the Weather History Date:

Wednesday, November 7, 2012

  Actual Average (KSBA) Record (KSBA)
Temperature  
Mean Temperature 60 °F 58 °F  
Max Temperature 77 °F 70 °F 90 °F (1956)
Min Temperature 44 °F 46 °F 36 °F (1947)
Degree Days  
Heating Degree Days 4 7  
Month to date heating degree days 45  
Since 1 July heating degree days 262  
Cooling Degree Days 0 0  
Month to date cooling degree days 0  
Year to date cooling degree days 186  
Growing Degree Days 10 (Base 50)    
Moisture  
Dew Point 43 °F    
Average Humidity 64    
Maximum Humidity 94    
Minimum Humidity 34    
Precipitation  
Precipitation 0.00 in 0.05 in 2.46 in (1966)
Month to date precipitation 0.34  
Year to date precipitation 13.61  
Since 1 July precipitation 1.56  
Sea Level Pressure  
Sea Level Pressure 30.02 in    
Wind  
Wind Speed 3 mph (WNW)    
Max Wind Speed 13 mph    
Max Gust Speed -    
Visibility 10 miles    
Events      
T = Trace of Precipitation, MM = Missing Value Source: NWS Daily Summary

Daily Weather History Graph

Daily Weather History Graph

Search for Another Location

Airport:

Trip Planner

Search our weather history database for the weather conditions in past years. The results will help you decide how hot, cold, wet, or windy it might be!

Date:

Astronomy

Nov. 07, 2012 Rise Set
Actual Time 6:26 AM PST 5:00 PM PST
Civil Twilight 6:00 AM PST 5:27 PM PST
Nautical Twilight 5:30 AM PST 5:57 PM PST
Astronomical Twilight 5:00 AM PST 6:26 PM PST
Moon No Moon Rise 12:57 PM PST (11/7)
Length of Visible Light 11h 26m
Length of Day
10h 33m
Last Quarter, 42% of the Moon is Illuminated
Nov 7
Last Quarter
Nov 13
New
Nov 20
First Quarter
Nov 28
Full
Dec 6
Last Quarter

Hourly Weather History & Observations

Time (PST) Temp. Windchill Dew Point Humidity Pressure Visibility Wind Dir Wind Speed Gust Speed Precip Events Conditions
12:15 AM 51.8 °F - 37.4 °F 58% 30.07 in 10.0 mi Calm Calm - N/A   Clear
12:35 AM 51.8 °F - 37.4 °F 58% 30.06 in 10.0 mi Calm Calm - N/A   Clear
12:55 AM 51.8 °F - 37.4 °F 58% 30.06 in 10.0 mi Calm Calm - N/A   Clear
1:15 AM 50.0 °F - 37.4 °F 62% 30.06 in 10.0 mi Calm Calm - N/A   Clear
1:35 AM 50.0 °F - 37.4 °F 62% 30.06 in 10.0 mi Calm Calm - N/A   Clear
1:55 AM 50.0 °F - 37.4 °F 62% 30.06 in 10.0 mi Calm Calm - N/A   Clear
2:15 AM 50.0 °F - 39.2 °F 66% 30.06 in 10.0 mi Calm Calm - N/A   Clear
2:35 AM 50.0 °F - 37.4 °F 62% 30.06 in 10.0 mi Calm Calm - N/A   Clear
2:55 AM 46.4 °F 45.2 °F 35.6 °F 66% 30.05 in 10.0 mi ENE 3.5 mph - N/A   Clear
3:15 AM 44.6 °F 43.1 °F 35.6 °F 71% 30.04 in 10.0 mi NE 3.5 mph - N/A   Clear
3:35 AM 46.4 °F 45.2 °F 35.6 °F 66% 30.04 in 10.0 mi East 3.5 mph - N/A   Clear
3:55 AM 46.4 °F 44.3 °F 35.6 °F 66% 30.05 in 10.0 mi ENE 4.6 mph - N/A   Clear
4:15 AM 44.6 °F 43.1 °F 35.6 °F 71% 30.05 in 10.0 mi ENE 3.5 mph - N/A   Clear
4:35 AM 44.6 °F - 35.6 °F 71% 30.05 in 10.0 mi Calm Calm - N/A   Clear
4:55 AM 46.4 °F - 35.6 °F 66% 30.05 in 10.0 mi Calm Calm - N/A   Clear
5:15 AM 46.4 °F - 37.4 °F 71% 30.05 in 10.0 mi Calm Calm - N/A   Clear
5:35 AM 46.4 °F - 37.4 °F 71% 30.05 in 10.0 mi Calm Calm - N/A   Clear
5:55 AM 44.6 °F - 35.6 °F 71% 30.05 in 10.0 mi Calm Calm - N/A   Clear
6:15 AM 44.6 °F - 35.6 °F 71% 30.05 in 10.0 mi Calm Calm - N/A   Clear
6:35 AM 46.4 °F - 35.6 °F 66% 30.05 in 10.0 mi Calm Calm - N/A   Clear
6:55 AM 44.6 °F - 35.6 °F 71% 30.06 in 10.0 mi Calm Calm - N/A   Clear
7:15 AM 44.6 °F - 35.6 °F 71% 30.06 in 10.0 mi Calm Calm - N/A   Clear
7:35 AM 50.0 °F - 35.6 °F 58% 30.07 in 10.0 mi Calm Calm - N/A   Clear
7:55 AM 50.0 °F - 35.6 °F 58% 30.07 in 10.0 mi Calm Calm - N/A   Clear
8:15 AM 51.8 °F - 35.6 °F 54% 30.07 in 10.0 mi Calm Calm - N/A   Clear
8:35 AM 55.4 °F - 35.6 °F 47% 30.07 in 10.0 mi Calm Calm - N/A   Clear
8:55 AM 59.0 °F - 35.6 °F 42% 30.07 in 10.0 mi Calm Calm - N/A   Clear
9:15 AM 59.0 °F - 37.4 °F 45% 30.07 in 10.0 mi Calm Calm - N/A   Clear
9:35 AM 62.6 °F - 37.4 °F 39% 30.06 in 10.0 mi West 4.6 mph - N/A   Clear
9:55 AM 64.4 °F - 37.4 °F 37% 30.06 in 10.0 mi West 5.8 mph - N/A   Clear
10:15 AM 64.4 °F - 41.0 °F 42% 30.05 in 10.0 mi West 5.8 mph - N/A   Clear
10:35 AM 68.0 °F - 42.8 °F 40% 30.05 in 10.0 mi West 6.9 mph - N/A   Clear
10:55 AM 69.8 °F - 41.0 °F 35% 30.04 in 10.0 mi WNW 5.8 mph - N/A   Clear
11:15 AM 71.6 °F - 42.8 °F 35% 30.03 in 10.0 mi West 6.9 mph - N/A   Clear
11:35 AM 71.6 °F - 44.6 °F 38% 30.02 in 10.0 mi WSW 5.8 mph - N/A   Clear
11:55 AM 73.4 °F - 44.6 °F 36% 30.01 in 10.0 mi West 10.4 mph - N/A   Clear
12:15 PM 73.4 °F - 44.6 °F 36% 30.00 in 10.0 mi West 9.2 mph - N/A   Clear
12:35 PM 73.4 °F - 44.6 °F 36% 30.00 in 10.0 mi West 8.1 mph - N/A   Clear
12:55 PM 75.2 °F - 44.6 °F 34% 29.99 in 10.0 mi West 8.1 mph - N/A   Clear
1:15 PM 77.0 °F - 46.4 °F 34% 29.98 in 10.0 mi West 10.4 mph - N/A   Clear
1:35 PM 75.2 °F - 48.2 °F 38% 29.98 in 10.0 mi West 11.5 mph - N/A   Clear
1:55 PM 73.4 °F - 50.0 °F 44% 29.97 in 10.0 mi WNW 12.7 mph - N/A   Clear
2:15 PM 73.4 °F - 50.0 °F 44% 29.97 in 10.0 mi West 11.5 mph - N/A   Clear
2:35 PM 71.6 °F - 50.0 °F 46% 29.97 in 10.0 mi WNW 11.5 mph - N/A   Clear
2:55 PM 71.6 °F - 50.0 °F 46% 29.97 in 10.0 mi West 11.5 mph - N/A   Clear
3:15 PM 69.8 °F - 51.8 °F 53% 29.97 in 10.0 mi WNW 10.4 mph - N/A   Clear
3:35 PM 68.0 °F - 50.0 °F 52% 29.97 in 10.0 mi WNW 10.4 mph - N/A   Clear
3:55 PM 66.2 °F - 50.0 °F 56% 29.97 in 10.0 mi WNW 11.5 mph - N/A   Clear
4:15 PM 64.4 °F - 50.0 °F 59% 29.97 in 10.0 mi WNW 9.2 mph - N/A   Clear
4:35 PM 62.6 °F - 50.0 °F 63% 29.98 in 10.0 mi WNW 6.9 mph - N/A   Clear
4:55 PM 59.0 °F - 50.0 °F 72% 29.98 in 10.0 mi WNW 8.1 mph - N/A   Clear
5:15 PM 57.2 °F - 50.0 °F 77% 29.98 in 10.0 mi West 5.8 mph - N/A   Clear
5:35 PM 55.4 °F - 50.0 °F 82% 29.98 in 10.0 mi West 5.8 mph - N/A   Clear
5:55 PM 53.6 °F - 50.0 °F 88% 29.99 in 10.0 mi West 5.8 mph - N/A   Clear
6:15 PM 53.6 °F - 50.0 °F 88% 29.99 in 10.0 mi West 8.1 mph - N/A   Clear
6:35 PM 53.6 °F - 50.0 °F 88% 30.00 in 10.0 mi West 5.8 mph - N/A   Clear
6:55 PM 51.8 °F - 50.0 °F 94% 30.00 in 10.0 mi WNW 5.8 mph - N/A   Clear
7:15 PM 53.6 °F - 50.0 °F 88% 30.00 in 10.0 mi NNW 4.6 mph - N/A   Clear
7:35 PM 53.6 °F - 50.0 °F 88% 30.00 in 7.0 mi WNW 4.6 mph - N/A   Scattered Clouds
7:55 PM 53.6 °F - 50.0 °F 88% 30.00 in 7.0 mi SW 3.5 mph - N/A   Mostly Cloudy
8:15 PM 53.6 °F - 50.0 °F 88% 30.00 in 10.0 mi Calm Calm - N/A   Overcast
8:35 PM 53.6 °F - 50.0 °F 88% 30.00 in 10.0 mi Calm Calm - N/A   Overcast
8:55 PM 53.6 °F - 50.0 °F 88% 30.00 in 10.0 mi Calm Calm - N/A   Overcast
9:15 PM 53.6 °F - 50.0 °F 88% 30.00 in 7.0 mi Calm Calm - N/A   Overcast
9:35 PM 53.6 °F - 50.0 °F 88% 30.00 in 7.0 mi Calm Calm - N/A   Overcast
9:55 PM 53.6 °F - 50.0 °F 88% 29.99 in 7.0 mi Calm Calm - N/A   Overcast
10:15 PM 53.6 °F - 50.0 °F 88% 29.99 in 7.0 mi Calm Calm - N/A   Overcast
10:35 PM 53.6 °F - 50.0 °F 88% 29.98 in 7.0 mi Calm Calm - N/A   Overcast
10:55 PM 53.6 °F - 50.0 °F 88% 29.98 in 7.0 mi Calm Calm - N/A   Overcast
11:15 PM 53.6 °F - 50.0 °F 88% 29.97 in 7.0 mi Calm Calm - N/A   Overcast
11:35 PM 53.6 °F - 50.0 °F 88% 29.97 in 7.0 mi Calm Calm - N/A   Overcast
11:55 PM 53.6 °F - 50.0 °F 88% 29.97 in 7.0 mi SW 3.5 mph - N/A   Overcast